Date String (YYYY-MM-DD hh:mm:ss) UTC,Instrument flags,absolute air pressure of the measurement (hPa),sample flow rate (lpm),inlet stack bypass flow (lpm),air temperature of the measurement (°C),ambient temperature measured by the external sensor (°C),aerosol sample conditioner tube jacket temperature (°C),OPC LED temperature (°C),internal box temperature (°C),relative humidity of the measurement (%),span deviation,mass concentration of particles derived from Lorenz-Mie calculation of OPC scattering (μg/m³),mass concentration of particles derived from Lorenz-Mie calculation of OPC scattering (μg/m³),mass concentration of particles derived from Lorenz-Mie calculation of OPC scattering (μg/m³)
DateTimeUTC,F1_M11,P_M11,Q1_M11,Q2_M11,T1_M11,T2_M11,T3_M11,T4_M11,T5_M11,U1_M11,ZSPAN_M11,X0_M11,X2_M11,X1_M11
2024-02-19 17:00:00,SystemResetWarning,0827.1,5.00,000.00,019.6,019.3,000.0,027.8,021.4,12.3,0000.0,0001.40,0000.62,0000.42
2024-02-19 17:01:00,SystemResetWarning,0827.1,5.02,000.00,019.7,019.3,000.0,027.8,021.4,12.1,0000.0,0001.52,0000.64,0000.43
2024-02-19 17:02:00,SystemResetWarning,0827.1,5.01,000.00,019.7,019.3,000.0,027.8,021.4,11.8,0000.0,0001.63,0000.67,0000.44
2024-02-19 17:03:00,SystemResetWarning,0827.1,4.99,000.00,019.7,019.4,000.0,027.8,021.4,11.8,0000.0,0001.67,0000.68,0000.45
2024-02-19 17:04:00,SystemResetWarning,0827.1,4.99,000.00,019.7,019.4,000.0,027.9,021.5,12.4,0000.0,0001.64,0000.69,0000.46
2024-02-19 17:05:00,SystemResetWarning,0827.1,4.99,000.00,019.7,019.4,000.0,027.9,021.5,13.8,0000.0,0001.98,0000.70,0000.46
2024-02-19 17:06:00,SystemResetWarning,0827.1,5.01,000.00,019.8,019.4,000.0,027.9,021.5,14.2,0000.0,0004.63,0000.75,0000.47
2024-02-19 17:07:00,SystemResetWarning,0827.2,5.00,000.00,019.8,019.4,000.0,027.9,021.5,13.7,0000.0,0005.05,0000.78,0000.48
2024-02-19 17:08:00,SystemResetWarning,0827.2,5.00,000.00,019.8,019.4,000.0,027.9,021.5,13.4,0000.0,0005.13,0000.83,0000.50
2024-02-19 17:09:00,SystemResetWarning,0827.2,5.00,000.00,019.8,019.5,000.0,028.0,021.6,13.4,0000.0,0005.42,0000.88,0000.52
2024-02-19 17:10:00,SystemResetWarning,0827.1,5.00,000.00,019.8,019.5,000.0,028.0,021.6,14.0,0000.0,0005.60,0000.91,0000.54
2024-02-19 17:11:00,SystemResetWarning,0827.1,5.00,000.00,019.8,019.5,000.0,028.0,021.6,13.4,0000.0,0006.24,0000.91,0000.54
2024-02-19 17:12:00,SystemResetWarning,0827.1,5.00,000.00,019.9,019.5,000.0,028.0,021.6,13.1,0000.0,0006.67,0000.95,0000.55
2024-02-19 17:13:00,SystemResetWarning,0827.2,5.00,000.00,019.9,019.5,000.0,028.0,021.6,13.2,0000.0,0006.59,0000.95,0000.58
2024-02-19 17:14:00,SystemResetWarning,0827.2,5.01,000.00,019.9,019.5,000.0,028.1,021.6,13.4,0000.0,0006.78,0001.01,0000.62
2024-02-19 17:15:00,SystemResetWarning,0827.1,5.00,000.00,019.9,019.6,000.0,028.1,021.7,13.7,0000.0,0007.07,0001.11,0000.65
2024-02-19 17:16:00,SystemResetWarning,0827.2,5.00,000.00,019.9,019.6,000.0,028.1,021.7,13.4,0000.0,0007.01,0001.18,0000.68
2024-02-19 17:17:00,SystemResetWarning,0827.2,5.00,000.00,019.9,019.6,000.0,028.1,021.7,14.1,0000.0,0004.76,0001.22,0000.71
2024-02-19 17:18:00,SystemResetWarning,0827.2,5.00,000.00,020.0,019.6,000.0,028.1,021.7,14.3,0000.0,0004.45,0001.29,0000.73
2024-02-19 17:19:00,SystemResetWarning,0827.2,5.00,000.00,020.0,019.6,000.0,028.1,021.7,14.6,0000.0,0004.65,0001.31,0000.75
2024-02-19 17:20:00,SystemResetWarning,0827.2,5.00,000.00,020.0,019.6,000.0,028.2,021.8,14.6,0000.0,0005.07,0001.31,0000.76
2024-02-19 17:21:00,SystemResetWarning,0827.2,5.00,000.00,020.0,019.7,000.0,028.2,021.8,14.4,0000.0,0005.53,0001.36,0000.78
2024-02-19 17:22:00,SystemResetWarning,0827.2,4.99,000.00,020.0,019.7,000.0,028.2,021.8,14.1,0000.0,0005.55,0001.44,0000.81
2024-02-19 17:23:00,SystemResetWarning,0827.3,5.00,000.00,020.0,019.7,000.0,028.2,021.8,14.3,0000.0,0004.88,0001.48,0000.83
2024-02-19 17:24:00,SystemResetWarning,0827.4,5.00,000.00,020.1,019.7,000.0,028.2,021.8,14.1,0000.0,0004.92,0001.50,0000.84
2024-02-19 17:25:00,SystemResetWarning,0827.4,5.00,000.00,020.1,019.7,000.0,028.2,021.8,14.2,0000.0,0005.16,0001.53,0000.84
2024-02-19 17:26:00,SystemResetWarning,0827.3,5.00,000.00,020.1,019.7,000.0,028.2,021.9,14.5,0000.0,0007.26,0001.52,0000.84
2024-02-19 17:27:00,SystemResetWarning,0827.3,5.00,000.00,020.1,019.7,000.0,028.3,021.9,14.7,0000.0,0008.25,0001.53,0000.85
2024-02-19 17:28:00,SystemResetWarning,0827.2,5.00,000.00,020.1,019.8,000.0,028.3,021.9,14.9,0000.0,0008.54,0001.54,0000.87
2024-02-19 17:29:00,SystemResetWarning,0827.3,5.00,000.00,020.1,019.8,000.0,028.3,021.9,14.1,0000.0,0008.38,0001.52,0000.88
2024-02-19 17:30:00,SystemResetWarning,0827.3,5.00,000.00,020.2,019.8,000.0,028.3,021.9,13.9,0000.0,0008.78,0001.53,0000.90
2024-02-19 17:31:00,SystemResetWarning,0827.3,5.00,000.00,020.2,019.8,000.0,028.3,021.9,14.1,0000.0,0008.97,0001.56,0000.92
2024-02-19 17:32:00,SystemResetWarning,0827.3,5.00,000.00,020.2,019.8,000.0,028.4,021.9,13.7,0000.0,0009.28,0001.60,0000.94
2024-02-19 17:33:00,SystemResetWarning,0827.4,5.00,000.00,020.2,019.8,000.0,028.4,022.0,13.6,0000.0,0009.28,0001.59,0000.96
2024-02-19 17:34:00,SystemResetWarning,0827.4,5.00,000.00,020.2,019.8,000.0,028.4,022.0,13.7,0000.0,0009.59,0001.59,0000.97
2024-02-19 17:35:00,SystemResetWarning,0827.6,5.00,000.00,020.2,019.9,000.0,028.4,022.0,13.4,0000.0,0009.68,0001.62,0000.99
2024-02-19 17:36:00,SystemResetWarning,0827.4,5.00,000.00,020.3,019.9,000.0,028.4,022.0,13.4,0000.0,0009.80,0001.64,0001.00
2024-02-19 17:37:00,SystemResetWarning,0827.4,5.00,000.00,020.3,019.9,000.0,028.5,022.0,13.0,0000.0,0009.40,0001.68,0001.01
2024-02-19 17:38:00,SystemResetWarning,0827.4,4.99,000.00,020.3,019.9,000.0,028.5,022.1,13.5,0000.0,0008.87,0001.68,0001.01
2024-02-19 17:39:00,SystemResetWarning,0827.4,4.99,000.00,020.3,019.9,000.0,028.5,022.1,13.7,0000.0,0008.43,0001.70,0001.01
2024-02-19 17:40:00,SystemResetWarning,0827.3,4.99,000.00,020.3,019.9,000.0,028.5,022.1,12.9,0000.0,0008.37,0001.69,0001.01
2024-02-19 17:41:00,SystemResetWarning,0827.3,5.01,000.00,020.3,019.9,000.0,028.5,022.1,12.9,0000.0,0008.15,0001.69,0001.02
2024-02-19 17:42:00,SystemResetWarning,0827.2,5.01,000.00,020.3,019.9,000.0,028.5,022.1,13.1,0000.0,0007.79,0001.69,0001.02
2024-02-19 17:43:00,SystemResetWarning,0827.2,5.00,000.00,020.3,020.0,000.0,028.5,022.1,13.1,0000.0,0007.78,0001.62,0001.01
2024-02-19 17:44:00,SystemResetWarning,0827.3,5.00,000.00,020.4,020.0,000.0,028.6,022.1,12.8,0000.0,0007.32,0001.62,0000.99
2024-02-19 17:45:00,SystemResetWarning,0827.3,4.99,000.00,020.4,020.0,000.0,028.6,022.1,12.4,0000.0,0007.01,0001.59,0000.98
2024-02-19 17:46:00,SystemResetWarning,0827.4,4.99,000.00,020.4,020.0,000.0,028.6,022.2,12.8,0000.0,0007.04,0001.56,0000.97
2024-02-19 17:47:00,SystemResetWarning,0827.4,4.99,000.00,020.4,020.0,000.0,028.6,022.2,13.3,0000.0,0007.13,0001.53,0000.95
2024-02-19 17:48:00,SystemResetWarning,0827.4,5.00,000.00,020.4,020.0,000.0,028.6,022.2,12.9,0000.0,0006.48,0001.49,0000.94
2024-02-19 17:49:00,SystemResetWarning,0827.4,5.01,000.00,020.4,020.0,000.0,028.6,022.2,12.5,0000.0,0005.66,0001.44,0000.92
2024-02-19 17:50:00,SystemResetWarning,0827.4,5.01,000.00,020.5,020.0,000.0,028.6,022.2,12.7,0000.0,0005.58,0001.36,0000.91
2024-02-19 17:51:00,SystemResetWarning,0827.3,5.01,000.00,020.5,020.0,000.0,028.7,022.2,12.7,0000.0,0005.45,0001.31,0000.88
2024-02-19 17:52:00,SystemResetWarning,0827.3,5.00,000.00,020.5,020.1,000.0,028.7,022.2,12.4,0000.0,0005.31,0001.25,0000.85
2024-02-19 17:53:00,SystemResetWarning,0827.4,5.00,000.00,020.5,020.1,000.0,028.7,022.2,12.1,0000.0,0005.58,0001.22,0000.83
2024-02-19 17:54:00,SystemResetWarning,0827.4,5.00,000.00,020.5,020.1,000.0,028.7,022.3,11.9,0000.0,0004.68,0001.22,0000.82
2024-02-19 17:55:00,SystemResetWarning,0827.3,5.00,000.00,020.5,020.1,000.0,028.7,022.3,12.0,0000.0,0005.05,0001.21,0000.80
2024-02-19 17:56:00,SystemResetWarning,0827.3,4.99,000.00,020.5,020.1,000.0,028.7,022.3,12.3,0000.0,0006.74,0001.22,0000.80
2024-02-19 17:57:00,SystemResetWarning,0827.3,5.00,000.00,020.5,020.1,000.0,028.8,022.3,11.8,0000.0,0006.60,0001.20,0000.79
2024-02-19 17:58:00,SystemResetWarning,0827.4,4.99,000.00,020.6,020.1,000.0,028.8,022.3,12.0,0000.0,0007.27,0001.20,0000.80
2024-02-19 17:59:00,SystemResetWarning,0827.4,5.00,000.00,020.6,020.2,000.0,028.8,022.3,11.8,0000.0,0006.84,0001.18,0000.80
